Location: Felsheim
(48.7267°N, 10.7386°E)
Time: 23:18:53
(UTC+00:00)

Cosmos 220 Rocket - Pass Details

Date: 09 April 2020
Orbit: 574 x 618 km, 74.0° (Epoch: 27 May)

Event Time Altitude Azimuth Distance (km) Brightness Sun altitude
Rises 19:13:07 0° 341° (NNW) 2,840 8.2 -12.1°
Reaches altitude 10° 19:15:25 10° 347° (NNW) 1,941 7.2 -12.4°
Maximum altitude 19:19:36 47° 62° (ENE) 806 4.4 -13.0°
Enters shadow 19:22:14 21° 127° (SE) 1,371 5.2 -13.4°
